GW0374 Weather Reports


time (UTC)temp
C
wind
direction
speed
KPH
gust
KPH
rain 1hr
cm
rain 24hr
cm
rain mn
cm
humidity
%
barometer
mb
20260508091024 13 0 0.0 0.0 0.05 0.89 0.05 69 1016.0
20260508090503 13 292 0.0 3.2 0.05 0.86 0.05 69 1016.3
20260508090003 13 274 1.6 4.8 0.05 0.86 0.05 69 1016.1
20260508085524 13 268 1.6 4.8 0.05 0.86 0.05 71 1016.5
20260508085003 13 259 0.0 4.8 0.05 0.86 0.05 69 1016.6
20260508084503 13 205 0.0 3.2 0.03 0.84 0.03 69 1016.4
20260508084003 13 151 0.0 3.2 0.00 0.81 0.00 69 1016.5
20260508083503 13 134 1.6 4.8 0.00 0.81 0.00 69 1016.1
20260508083003 13 135 1.6 4.8 0.00 0.81 0.00 69 1016.1
20260508082503 13 131 0.0 3.2 0.00 0.81 0.00 69 1015.9
20260508082003 13 283 0.0 1.6 0.00 0.81 0.00 69 1015.9
20260508081503 13 282 1.6 8.0 0.00 0.81 0.00 69 1015.9
20260508081003 13 282 3.2 8.0 0.00 0.81 0.00 69 1016.0
20260508080504 13 282 1.6 6.4 0.00 0.81 0.00 69 1015.9
20260508080004 13 141 0.0 1.6 0.00 0.81 0.00 68 1015.8
20260508075525 13 138 0.0 3.2 0.00 0.81 0.00 68 1015.5
20260508075003 13 133 0.0 3.2 0.00 0.81 0.00 68 1015.4
20260508074504 13 127 0.0 3.2 0.00 0.81 0.00 68 1015.4
20260508074024 13 0 0.0 0.0 0.00 0.81 0.00 66 1015.5
20260508073503 13 0 0.0 0.0 0.00 0.81 0.00 66 1015.5
20260507210024 15 69 0.0 1.6 0.00 0.81 0.81 90 1015.6
20260507195503 16 0 0.0 0.0 0.00 0.81 0.81 87 1015.0
20260507195004 16 245 0.0 1.6 0.00 0.81 0.81 87 1014.9
20260507194504 16 245 0.0 1.6 0.00 0.81 0.81 88 1014.7
20260507194024 16 245 0.0 1.6 0.00 0.81 0.81 88 1014.7
20260507193503 16 0 0.0 0.0 0.00 0.81 0.81 88 1014.7
20260507193003 16 245 0.0 1.6 0.00 0.81 0.81 90 1014.5
20260507192525 16 247 0.0 1.6 0.00 0.81 0.81 90 1014.5
20260507192004 16 252 0.0 1.6 0.00 0.81 0.81 88 1014.5
20260507191503 16 252 0.0 1.6 0.00 0.81 0.81 90 1014.4
20260507191003 16 248 0.0 1.6 0.00 0.81 0.81 88 1014.3
20260507190503 16 261 0.0 1.6 0.00 0.81 0.81 88 1014.2
20260507190024 16 275 0.0 1.6 0.00 0.81 0.81 88 1014.2
20260507185503 16 349 0.0 1.6 0.00 0.81 0.81 88 1014.1
20260507185025 16 349 0.0 1.6 0.00 0.81 0.81 88 1014.2
20260507184504 16 0 0.0 0.0 0.00 0.81 0.81 87 1014.1
20260507184004 16 351 0.0 1.6 0.00 0.81 0.81 87 1014.0
20260507183503 16 351 0.0 1.6 0.00 0.81 0.81 87 1014.0
20260507183024 16 351 0.0 1.6 0.00 0.81 0.81 85 1013.9
20260507182503 16 4 0.0 4.8 0.00 0.81 0.81 85 1013.8
20260507182003 16 327 1.6 4.8 0.00 0.81 0.81 83 1013.7
20260507181524 16 308 3.2 11.3 0.00 0.81 0.81 83 1013.7
20260507181004 17 308 3.2 11.3 0.00 0.81 0.81 80 1013.6
20260507180503 17 322 1.6 8.0 0.00 0.81 0.81 80 1013.6
20260507180003 17 331 1.6 9.7 0.00 0.81 0.81 79 1013.5
20260507175503 17 329 3.2 9.7 0.00 0.81 0.81 77 1013.4
20260507175003 17 332 3.2 9.7 0.00 0.81 0.81 83 1013.5
20260507174504 18 330 3.2 11.3 0.00 0.81 0.81 83 1013.5
20260507174003 18 325 3.2 11.3 0.00 0.81 0.81 83 1013.4
20260507173503 18 310 1.6 6.4 0.00 0.81 0.81 82 1013.3
20260507173003 19 285 0.0 6.4 0.00 0.81 0.81 79 1013.3
20260507172503 20 257 0.0 3.2 0.00 0.81 0.81 79 1013.4
20260507172003 20 253 1.6 6.4 0.00 0.81 0.81 77 1013.3
20260507171503 19 260 1.6 6.4 0.00 0.81 0.81 77 1013.3
20260507171004 19 269 1.6 4.8 0.00 0.81 0.81 77 1013.2
20260507170503 19 249 1.6 4.8 0.00 0.81 0.81 75 1013.2
20260507170003 18 241 0.0 4.8 0.00 0.81 0.81 77 1013.2
20260507165503 18 270 0.0 4.8 0.00 0.81 0.81 79 1013.3
20260507165003 18 265 0.0 4.8 0.00 0.81 0.81 79 1013.3
20260507164503 18 174 0.0 4.8 0.00 0.81 0.81 77 1013.3
20260507164004 18 235 0.0 4.8 0.00 0.81 0.81 79 1013.3
20260507163504 18 270 0.0 4.8 0.00 0.81 0.81 79 1013.3
20260507163003 17 283 1.6 6.4 0.00 0.81 0.81 80 1013.3
20260507162503 17 287 1.6 6.4 0.00 0.81 0.81 80 1013.3
20260507162003 17 297 1.6 4.8 0.00 0.81 0.81 79 1013.3
20260507161525 17 301 0.0 4.8 0.00 0.81 0.81 79 1013.2
20260507161003 17 261 0.0 3.2 0.00 0.81 0.81 80 1013.2
20260507160503 17 289 0.0 4.8 0.00 0.81 0.81 80 1013.1
20260507160003 17 299 1.6 8.0 0.00 0.81 0.81 79 1013.2
20260507155503 17 296 1.6 9.7 0.00 0.81 0.81 80 1013.1
20260507155003 17 291 1.6 9.7 0.00 0.81 0.81 80 1013.2
20260507154504 17 289 3.2 8.0 0.00 0.81 0.81 82 1013.1
20260507154004 17 294 3.2 8.0 0.00 0.81 0.81 82 1013.2
20260507153504 17 295 3.2 11.3 0.00 0.81 0.81 83 1013.2
20260507153003 17 288 4.8 11.3 0.00 0.81 0.81 83 1013.2
20260507152503 17 288 4.8 11.3 0.00 0.81 0.81 82 1013.2
20260507152004 17 288 3.2 8.0 0.00 0.81 0.81 82 1013.1
20260507151504 17 285 4.8 11.3 0.00 0.81 0.81 82 1013.2
20260507151003 17 285 4.8 11.3 0.00 0.81 0.81 82 1013.0
20260507150504 17 289 4.8 9.7 0.00 0.81 0.81 79 1012.8
20260507150003 17 291 6.4 12.9 0.00 0.81 0.81 80 1012.9
20260507145503 17 287 6.4 12.9 0.00 0.81 0.81 79 1012.8
20260507145003 17 284 6.4 12.9 0.00 0.81 0.81 83 1012.9
20260507144503 17 285 6.4 12.9 0.00 0.81 0.81 82 1012.9
20260507144003 17 283 4.8 12.9 0.00 0.81 0.81 83 1013.0
20260507143524 17 278 4.8 9.7 0.00 0.81 0.81 83 1013.0
20260507143003 17 275 4.8 9.7 0.00 0.81 0.81 82 1012.9
20260507142503 17 273 6.4 11.3 0.00 0.81 0.81 85 1012.9
20260507142004 17 276 6.4 14.5 0.00 0.81 0.81 85 1012.7
20260507141504 18 283 8.0 14.5 0.00 0.81 0.81 83 1012.7
20260507141003 18 284 8.0 12.9 0.00 0.81 0.81 80 1012.6
20260507140503 18 288 4.8 12.9 0.00 0.81 0.81 80 1012.7
20260507140003 18 294 1.6 8.0 0.00 0.81 0.81 79 1013.0
20260507135503 18 288 0.0 4.8 0.00 0.81 0.81 80 1012.8
20260507135003 18 109 0.0 3.2 0.03 0.81 0.81 82 1012.9
20260507134503 18 128 0.0 6.4 0.15 0.81 0.81 79 1013.0
20260507134003 17 128 1.6 6.4 0.15 0.81 0.81 80 1012.9
20260507133503 17 125 1.6 6.4 0.15 0.81 0.81 77 1013.0
20260507133004 18 127 1.6 6.4 0.15 0.81 0.81 79 1013.0
20260507132503 18 225 0.0 3.2 0.15 0.81 0.81 75 1012.9
20260507132003 17 273 0.0 3.2 0.15 0.81 0.81 74 1012.9
20260507131503 16 0 0.0 0.0 0.15 0.81 0.81 72 1013.0
20260507131004 16 0 0.0 0.0 0.15 0.81 0.81 72 1013.0
20260507130503 16 91 0.0 4.8 0.15 0.81 0.81 74 1013.2
20260507130026 16 82 0.0 4.8 0.18 0.81 0.81 72 1013.2
20260507125503 17 33 0.0 6.4 0.18 0.81 0.81 71 1013.1
20260507125004 17 354 1.6 6.4 0.15 0.79 0.79 68 1013.2
20260507124503 17 258 0.0 4.8 0.05 0.69 0.69 65 1013.1
20260507124004 17 259 0.0 4.8 0.05 0.66 0.66 64 1013.2
20260507123503 17 260 1.6 4.8 0.05 0.66 0.66 64 1013.2
20260507123004 17 258 0.0 4.8 0.05 0.66 0.66 64 1013.3
20260507122503 17 250 0.0 3.2 0.08 0.66 0.66 64 1013.4
20260507122005 17 276 1.6 4.8 0.08 0.66 0.66 64 1013.5
20260507121504 17 272 1.6 4.8 0.10 0.66 0.66 64 1013.5
20260507121003 17 273 1.6 4.8 0.10 0.66 0.66 65 1013.5
20260507120503 17 278 0.0 4.8 0.13 0.66 0.66 69 1013.5
20260507120025 17 276 0.0 4.8 0.10 0.64 0.64 69 1013.4
20260507115503 17 0 0.0 0.0 0.10 0.64 0.64 69 1013.5
20260507115003 17 219 0.0 4.8 0.13 0.64 0.64 69 1013.6
20260507114503 17 224 0.0 4.8 0.13 0.64 0.64 69 1013.6
20260507114003 17 241 0.0 3.2 0.13 0.61 0.61 69 1013.6
20260507113503 17 239 0.0 3.2 0.13 0.61 0.61 69 1013.6
20260507113004 17 225 0.0 3.2 0.13 0.61 0.61 68 1013.7
20260507112504 17 231 0.0 4.8 0.13 0.58 0.58 69 1013.8
20260507112003 17 256 0.0 6.4 0.15 0.58 0.58 68 1013.9
20260507111506 16 257 1.6 6.4 0.15 0.56 0.56 66 1013.9
20260507111004 17 240 0.0 4.8 0.20 0.56 0.56 66 1013.8
20260507110504 17 227 0.0 3.2 0.36 0.53 0.53 66 1013.8
20260507110004 16 251 0.0 3.2 0.48 0.53 0.53 66 1013.8
20260507105503 16 248 0.0 3.2 0.53 0.53 0.53 66 1014.0
20260507105004 16 229 0.0 1.6 0.51 0.51 0.51 65 1014.1
20260507104504 16 224 0.0 1.6 0.51 0.51 0.51 65 1014.0
20260507104004 16 224 0.0 3.2 0.51 0.51 0.51 66 1014.1
20260507103504 16 224 0.0 3.2 0.51 0.51 0.51 66 1014.1
20260507103004 16 0 0.0 0.0 0.48 0.48 0.48 71 1014.1
20260507102503 16 0 0.0 0.0 0.46 0.46 0.46 79 1014.0
20260507095003 18 33 1.6 12.9 0.00 0.00 0.00 80 1013.6
20260507094524 18 18 1.6 12.9 0.00 0.00 0.00 79 1013.7
20260507094024 18 340 0.0 6.4 0.00 0.00 0.00 79 1013.7
20260507093524 18 27 1.6 11.3 0.00 0.00 0.00 80 1013.7
20260507093003 18 35 1.6 11.3 0.00 0.00 0.00 80 1013.7
20260507092503 18 43 1.6 6.4 0.00 0.00 0.00 80 1013.7
20260507092003 18 36 3.2 11.3 0.00 0.00 0.00 80 1013.7
20260507091503 18 40 3.2 11.3 0.00 0.00 0.00 80 1013.8